Cloud_Cover
30 3 5 13 45 95 58 100 100 2 20 4 1 59 65 58 98 96 5 5 5 22 85 85 15 42 11 60 25 27 5 6 0 0 5 5 5 8 16 8 14 4 8 7 5 2 1 4 0
5 2 0 83 85 92 91 96 95 80 1 0 0 19 83 99 5 5 5 5 53 65 100 94 76 91 15 5 3 0 0 0 0 0 5 8 5 8 15 5 2 67 57 5 5 4 5 5 2
5 5 20 100 93 100 100 67 0 0 0 0 0 29 4 5 5 30 5 5 100 100 100 23 11 30 95 3 0 2 2 0 0 3 7 5 51 16 26 6 48 100 67 5 4 5 2 5 5
5 5 41 70 82 97 92 8 0 0 0 0 10 7 4 5 5 5 5 45 8 79 96 0 2 2 1 1 1 3 0 2 0 5 34 8 17 13 9 99 99 22 5 5 3 42 25 3 0
0 18 80 100 100 52 11 0 6 0 0 0 0 0 0 0 0 0 0 2 4 50 2 4 0 0 2 3 7 0 6 4 4 15 24 19 22 96 5 12 5 5 5 17 0 5 99 2 0
0 27 86 84 66 32 3 10 0 3 0 0 0 0 0 0 0 0 0 1 6 54 1 4 0 0 0 0 0 0 0 1 10 5 10 23 95 16 68 43 5 4 5 7 4 100 82 0 0
16 56 97 97 75 97 10 16 92 0 0 0 0 0 0 0 0 0 0 3 15 27 31 6 3 4 1 0 2 1 3 4 10 93 100 100 98 13 32 96 5 5 5 3 5 5 0 2 4
4 9 35 90 100 33 1 3 0 65 0 0 1 53 0 0 0 0 0 0 2 3 29 34 7 0 2 0 0 1 5 63 100 100 100 100 94 35 17 19 5 5 5 34 7 5 3 1 5
50 49 96 100 100 82 1 2 0 0 0 0 0 0 0 0 0 5 5 2 0 1 25 51 16 100 91 13 24 57 91 100 92 77 29 5 5 69 6 5 7 5 6 21 5 5 4 5 4
100 100 44 27 36 74 33 89 0 1 2 0 0 0 0 0 0 0 4 43 0 0 1 48 56 38 65 18 50 23 5 5 4 4 28 20 45 16 54 5 5 5 5 6 79 5 5 5 32
100 94 73 26 22 13 34 40 48 93 97 11 0 4 0 0 0 0 0 5 0 0 0 86 33 40 23 43 2 3 0 6 32 68 41 23 21 28 5 3 5 5 5 28 30 5 4 37 20
96 2 97 1 40 33 55 6 45 50 0 0 0 5 5 1 0 4 3 0 4 1 5 3 7 5 42 47 0 7 8 5 3 5 5 5 4 5 46 13 5 5 11 2 0 7 16 25 55
97 58 56 0 0 85 0 3 13 16 0 0 0 1 5 5 9 0 0 3 1 1 0 0 0 1 14 5 19 48 93 1 2 5 4 1 4 5 88 70 70 14 14 7 0 0 65 6 34
10 84 83 1 30 2 19 0 0 5 1 0 0 1 1 5 5 22 1 4 12 5 4 0 2 5 3 0 5 5 2 2 0 0 0 0 5 8 5 60 94 20 5 89 61 13 20 6 30
3 92 64 32 5 89 33 80 2 2 4 0 0 3 0 5 23 5 23 11 33 56 4 0 0 0 0 0 0 0 0 5 19 5 5 5 5 5 5 5 21 38 27 1 99 96 100 100 82
12 62 100 80 5 8 9 86 100 9 0 53 40 4 0 0 1 77 79 39 43 58 10 45 2 0 0 0 0 0 0 0 20 100 6 5 9 54 87 100 91 85 9 5 97 92 100 100 100
98 100 100 100 5 57 5 99 98 27 3 62 88 68 4 0 0 2 16 84 50 42 81 83 84 48 28 0 2 4 0 1 2 90 100 98 19 6 98 93 99 100 100 96 100 100 100 100 100
100 65 97 88 99 56 63 100 44 100 2 54 100 99 34 0 0 0 0 1 1 1 12 63 69 77 99 32 0 0 5 19 5 5 63 100 100 100 100 64 100 82 89 100 98 46 100 99 71
100 33 100 57 78 13 50 42 5 56 53 100 100 99 99 61 21 8 0 0 0 0 0 5 97 82 52 33 23 4 5 0 1 21 5 100 100 100 100 100 100 100 45 78 73 4 39 89 100
33 100 84 33 8 4 66 64 75 76 99 6 92 100 75 88 90 36 16 7 5 2 4 4 5 13 99 93 44 32 14 0 0 1 6 5 11 42 100 30 25 10 95 79 86 21 8 35 99
17 42 4 22 6 44 2 86 58 8 8 5 5 30 86 100 98 84 22 20 8 10 8 53 95 92 59 34 24 98 98 20 51 71 24 69 39 91 84 83 10 16 100 100 100 23 78 79 100
100 1 0 5 2 80 0 88 100 93 99 2 0 5 6 50 50 93 98 64 40 29 9 61 56 38 80 100 100 18 27 88 100 100 100 50 34 100 93 68 56 60 100 99 26 93 100 100 100
6 0 0 0 2 74 98 21 80 71 25 26 4 0 2 5 63 84 100 91 100 100 98 52 5 4 5 10 26 18 90 100 100 100 100 99 100 100 57 37 27 6 100 99 32 100 100 100 100
0 8 24 3 12 96 0 0 100 49 2 0 0 1 2 3 4 9 70 91 24 43 100 100 100 100 100 100 73 74 60 100 100 100 21 49 95 57 68 88 99 100 98 81 77 27 69 100 100
4 36 100 79 100 84 0 0 26 0 0 0 0 0 0 0 0 0 0 64 90 45 59 98 100 98 96 92 88 100 99 100 98 100 100 73 59 68 100 100 95 67 58 98 97 100 100 100 100
3 3 19 95 96 14 2 5 9 0 0 0 0 0 0 0 0 0 1 1 94 100 99 8 100 100 100 100 100 100 100 100 100 100 100 100 100 89 100 98 88 49 100 100 100 100 100 100 100
58 4 11 0 3 5 5 3 0 0 0 0 0 0 0 0 0 0 0 0 0 38 2 0 15 49 100 32 100 100 100 100 100 100 100 100 100 100 100 92 100 100 100 100 100 100 100 100 100
0 0 0 4 4 2 0 0 5 0 0 0 0 0 0 0 0 0 0 0 3 42 40 44 35 0 37 85 93 100 100 100 100 100 100 100 100 100 100 100 96 99 100 100 100 100 100 100 100
2 2 1 1 0 0 0 3 0 0 0 0 0 0 0 0 0 0 0 12 21 39 33 100 88 45 10 80 48 100 100 100 100 100 100 100 100 100 100 100 100 100 100 100 100 100 100 100 100
0 0 0 0 0 0 0 0 0 0 0 0 0 0 0 0 0 0 1 17 46 36 24 18 100 50 89 93 49 65 100 100 100 100 100 100 100 100 100 100 100 100 100 100 100 100 100 100 100